Dodge City, KS

7:29 PM CDT on May 20, 2018 (GMT -0500)
Dodge City Regional

Weather History for KDDC - December, 2012

Change the Weather History Date:

Saturday, December 8, 2012

  Actual Average Record
Temperature  
Mean Temperature 32 °F -  
Max Temperature 46 °F 43 °F 71 °F (1940)
Min Temperature 19 °F 23 °F -7 °F (1917)
Degree Days  
Heating Degree Days 32    
Moisture  
Dew Point 26 °F    
Average Humidity 77    
Maximum Humidity 100    
Minimum Humidity 29    
Precipitation  
Precipitation 0.00 in - - ()
Sea Level Pressure  
Sea Level Pressure 29.88 in    
Wind  
Wind Speed 5 mph (ESE)    
Max Wind Speed 16 mph    
Max Gust Speed -    
Visibility 7 miles    
Events Fog    
Averages and records for this station are not official NWS values.
T = Trace of Precipitation, MM = Missing Value Source: NWS Daily Summary

Daily Weather History Graph

Daily Weather History Graph

Search for Another Location

Airport or City:

Astronomy

Dec. 08, 2012 Rise Set
Actual Time 7:43 AM CST 5:20 PM CST
Civil Twilight 7:13 AM CST 5:50 PM CST
Nautical Twilight 6:41 AM CST 6:22 PM CST
Astronomical Twilight 6:09 AM CST 6:54 PM CST
Moon 2:14 AM CST (12/8) 1:47 PM CST (12/8)
Length of Visible Light 10h 36m
Length of Day
9h 37m
Waning Crescent, 28% of the Moon is Illuminated
Dec 8
Waning Crescent
Dec 13
New
Dec 19
First Quarter
Dec 28
Full
Jan 4
Last Quarter

Hourly Weather History & Observations

Time (CST) Temp. Windchill Dew Point Humidity Pressure Visibility Wind Dir Wind Speed Gust Speed Precip Events Conditions
12:52 AM 25.0 °F 19.3 °F 21.0 °F 85% 30.01 in 10.0 mi North 4.6 mph - N/A   Clear
1:52 AM 24.1 °F - 19.9 °F 84% 29.97 in 10.0 mi Calm Calm - N/A   Clear
2:52 AM 23.0 °F 18.4 °F 19.0 °F 85% 29.99 in 10.0 mi North 3.5 mph - N/A   Clear
3:52 AM 19.9 °F 12.1 °F 16.0 °F 85% 30.00 in 9.0 mi NNW 5.8 mph - N/A   Clear
4:52 AM 21.0 °F 14.6 °F 18.0 °F 88% 29.98 in 9.0 mi NNW 4.6 mph - N/A   Clear
5:52 AM 19.9 °F 14.9 °F 17.1 °F 89% 29.99 in 10.0 mi SW 3.5 mph - N/A   Clear
6:52 AM 21.0 °F - 17.1 °F 85% 29.99 in 10.0 mi Calm Calm - N/A   Clear
7:52 AM 21.9 °F - 18.0 °F 85% 29.99 in 8.0 mi Calm Calm - N/A   Clear
8:52 AM 26.1 °F 20.5 °F 21.9 °F 84% 29.98 in 2.5 mi North 4.6 mph - N/A   Clear
9:03 AM 28.4 °F - 23.0 °F 80% 29.93 in 5.0 mi Calm Calm - N/A   Haze
9:52 AM 32.0 °F - 25.0 °F 75% 29.97 in 10.0 mi Calm Calm - N/A   Clear
10:52 AM 37.0 °F 31.6 °F 26.1 °F 65% 29.94 in 10.0 mi ESE 6.9 mph - N/A   Clear
11:52 AM 45.0 °F 40.6 °F 23.0 °F 42% 29.91 in 10.0 mi South 8.1 mph - N/A   Clear
12:52 PM 45.0 °F 38.5 °F 24.1 °F 44% 29.85 in 10.0 mi South 13.8 mph - N/A   Clear
1:52 PM 46.0 °F 39.9 °F 25.0 °F 44% 29.83 in 10.0 mi South 13.8 mph - N/A   Clear
2:52 PM 45.0 °F 38.5 °F 28.0 °F 52% 29.79 in 10.0 mi SSE 13.8 mph - N/A   Clear
3:52 PM 45.0 °F 37.9 °F 30.0 °F 56% 29.78 in 10.0 mi South 16.1 mph - N/A   Clear
4:52 PM 42.1 °F 36.1 °F 30.0 °F 62% 29.78 in 9.0 mi SSE 10.4 mph - N/A   Clear
5:52 PM 33.8 °F 27.0 °F 26.6 °F 75% 29.73 in 9.0 mi SE 8.1 mph - N/A   Clear
6:52 PM 30.9 °F 26.2 °F 27.0 °F 85% 29.81 in 6.0 mi SE 4.6 mph - N/A   Clear
7:52 PM 30.0 °F 22.4 °F 26.1 °F 85% 29.82 in 6.0 mi ESE 8.1 mph - N/A   Clear
8:07 PM 30.2 °F 23.4 °F 26.6 °F 86% 29.75 in 5.0 mi ESE 6.9 mph - N/A   Scattered Clouds
8:16 PM 32.0 °F 24.2 °F 28.4 °F 87% 29.75 in 5.0 mi ESE 9.2 mph - N/A   Mostly Cloudy
8:52 PM 34.0 °F 28.8 °F 30.9 °F 89% 29.82 in 6.0 mi East 5.8 mph - N/A   Overcast
9:20 PM 35.6 °F 32.8 °F 32.0 °F 87% 29.78 in 5.0 mi East 3.5 mph - N/A   Overcast
9:52 PM 36.0 °F 30.3 °F 33.1 °F 89% 29.83 in 4.0 mi ESE 6.9 mph - N/A   Overcast
10:34 PM 35.6 °F 31.7 °F 33.8 °F 93% 29.81 in 2.5 mi ENE 4.6 mph - N/A   Overcast
10:48 PM 35.6 °F 30.7 °F 33.8 °F 93% 29.81 in 1.2 mi East 5.8 mph - N/A   Overcast
10:52 PM 35.6 °F 32.8 °F 33.8 °F 93% 29.82 in 1.0 mi East 3.5 mph - N/A   Overcast
11:12 PM 35.6 °F 32.8 °F 35.6 °F 100% 29.82 in 1.5 mi ENE 3.5 mph - N/A   Overcast
11:20 PM 37.4 °F 34.9 °F 35.6 °F 93% 29.83 in 0.8 mi East 3.5 mph - N/A   Overcast
11:52 PM 37.0 °F 33.3 °F 35.1 °F 93% 29.86 in 0.5 mi North 4.6 mph - N/A Fog Fog